Regional Weather Roundup
Issued by NWS Green Bay, WI

Home | Current Version | Previous Version | Graphics & Text | Print | Product List | Glossary Off
Versions: 1 2 3 4 5 6 7 8 9 10 11 12 13 14 15 16 17 18 19 20 21 22 23 24 25 26 27 28 29 30 31 32 33 34 35 36 37 38 39 40 41 42 43 44 45 46 47 48 49 50

000
ASUS43 KGRB 222211
RWRGRB

NORTH-CENTRAL AND NORTHEAST WISCONSIN REGIONAL WEATHER ROUNDUP
NATIONAL WEATHER SERVICE GREEN BAY WI
500 PM CDT THU JUN 22 2017

WIZ005-009-010>012-018-019-222300-
NORTH CENTRAL WISCONSIN

CITY           SKY/WX    TMP DP  RH WIND       PRES   REMARKS
IRONWOOD       CLOUDY    71  52  50 W10       29.71R
MANITOWISH WTR CLOUDY    65  62  89 SW9       29.73S
ARBOR VITAE    CLOUDY    64  62  91 W6        29.73F
EAGLE RIVER    CLOUDY    64  62  94 W8        29.72S
LAND O LAKES   CLOUDY    66  61  85 W5        29.73F
RHINELANDER    LGT RAIN  65  64  97 SW5       29.73F
PHILLIPS       CLOUDY    63  63 100 CALM      29.74R
ANTIGO         CLOUDY    65  64  97 SW6       29.74R
TOMAHAWK       NOT AVBL
MERRILL        CLOUDY    67  65  93 CALM      29.73S
$$

WIZ013-073-222300-
NORTHEAST WISCONSIN

CITY           SKY/WX    TMP DP  RH WIND       PRES   REMARKS
IRON MOUNTAIN  CLOUDY    69  62  78 VRB7      29.68R
MARINETTE      LGT RAIN  68  66  93 W3        29.70R
OCONTO         CLOUDY    68  66  93 SW5       29.70S
$$

WIZ017-030-035>037-045-222300-
CENTRAL WISCONSIN

CITY           SKY/WX    TMP DP  RH WIND       PRES   REMARKS
MEDFORD        CLOUDY    65  62  87 W5        29.74S
WAUSAU         LGT RAIN  66  64  93 S6        29.72R
MOSINEE        LGT RAIN  66  64  94 S8        29.76R FOG
MARSHFIELD     LGT RAIN  66  64  93 S7        29.72S FOG
WISC RAPIDS    RAIN      67  66  97 S7        29.75S FOG
STEVENS POINT  LGT RAIN  66  66 100 S10       29.74R
WAUPACA        LGT RAIN  71  70  96 SW3       29.74R
SHAWANO        LGT RAIN  70  67  91 SW3       29.72R
CLINTONVILLE   LGT RAIN  68  66  94 SW5       29.73R
WAUTOMA        LGT RAIN  69  67  93 CALM      29.74F
$$

WIZ038-039-048-051-222300-
FOX VALLEY

CITY           SKY/WX    TMP DP  RH WIND       PRES   REMARKS
NWS GREEN BAY  LGT RAIN  72  70  93 W7        29.72F
APPLETON       LGT RAIN  70  68  94 SW10      29.72F
OSHKOSH        LGT RAIN  72  66  81 SW6       29.74S
FOND DU LAC    CLOUDY    73  64  73 W3        29.74F
$$

WIZ022-050-052-222300-
EAST CENTRAL WISCONSIN

CITY           SKY/WX    TMP DP  RH WIND       PRES   REMARKS
EPHRAIM        MOCLDY    67  64  90 SW3       29.69R
WASHINGTON ISL NOT AVBL
STURGEON BAY   LGT RAIN  69  67  93 SW7         N/A
MANITOWOC      CLOUDY    74  67  78 SW8       29.75R
SHEBOYGAN      CLOUDY    75  67  76 W6        29.75R
$$

LMZ563-521-522-541>543-222300-
LAKESHORE

STATION/POSITION TIME  TEMP    WIND        PRES    VSBY  WAVE
                       AIR SEA DIR/SP/G                  HT/PER
                 (UTC) (F)     (DEG/KT/KT) (MB)    (MI)  (FT/S)
SHEBOYGAN LKSHOR 2200   72     240/  3/  6 1007.0R
KEWAUNEE LKSHORE 2148          180/  2/  5 1006.4R
NORTHPORT PIER   2140   68     180/  4/  7 1005.4S
N MID LAKE BUOY  2150   58 55  180/ 10/ 12 1005.8F         2/ 5
CHAMBERS ISLAND  2140   67     180/  5/ 14 1005.4R
MENOMINEE LKSHOR 2148          220/  6/  9 1004.8R
$$



USA.gov is the U.S. government's official web portal to all federal, state and local government web resources and services.